Location: Zapote
(9.9191°N, 84.0597°W)
Time: 06:31:13
(UTC-06:00)

Transit 4A - All Passes

Search period start: 07 March 2021 00:00
Search period end: 17 March 2021 00:00
Orbit: 866 x 978 km, 66.8° (Epoch: 07 March)

Date Brightness Start Highest point End Pass type
(mag) Time Alt. Az. Time Alt. Az. Time Alt. Az.
07 Mar - 07:15:11 10° S 07:21:15 46° ESE 07:27:18 10° NE daylight
07 Mar - 09:03:37 10° WSW 09:07:31 17° WNW 09:11:25 10° NNW daylight
07 Mar - 18:22:09 10° N 18:27:19 32° ENE 18:32:24 10° SE visible
07 Mar - 20:09:16 10° WNW 20:13:19 19° WSW 20:17:20 10° SSW visible
08 Mar - 07:24:07 10° SSW 07:30:30 78° ESE 07:36:52 10° NNE daylight
08 Mar - 18:30:54 10° N 18:36:37 55° ENE 18:42:15 10° SSE visible
08 Mar - 20:21:44 10° W 20:22:31 10° WSW 20:23:17 10° WSW visible
09 Mar - 05:52:20 10° ESE 05:53:49 11° ESE 05:55:18 10° E daylight
09 Mar - 07:33:27 10° SSW 07:39:46 64° WNW 07:46:04 10° NNE daylight
09 Mar - 18:40:03 10° NNW 18:45:53 85° WSW 18:51:40 10° SSE visible
10 Mar - 05:58:36 10° SSE 06:03:02 20° ESE 06:07:28 10° ENE daylight
10 Mar - 07:43:12 10° SW 07:49:04 39° WNW 07:54:56 10° N daylight
10 Mar - 17:06:18 10° NE 17:08:49 13° ENE 17:11:19 10° E daylight
10 Mar - 18:49:31 10° NW 18:55:06 49° WSW 19:00:39 10° S visible
11 Mar - 06:06:37 10° S 06:12:15 33° ESE 06:17:53 10° NE daylight
11 Mar - 07:53:29 10° WSW 07:58:25 23° WNW 08:03:21 10° NNW daylight
11 Mar - 17:13:44 10° NNE 17:18:13 23° ENE 17:22:39 10° ESE daylight
11 Mar - 18:59:27 10° NW 19:04:19 28° WSW 19:09:10 10° SSW visible
12 Mar - 06:15:16 10° S 06:21:29 56° ESE 06:27:42 10° NNE daylight
12 Mar - 08:04:48 10° W 08:07:49 14° WNW 08:10:51 10° NW daylight
12 Mar - 17:22:10 10° N 17:27:34 39° ENE 17:32:53 10° SE daylight
12 Mar - 19:10:09 10° WNW 19:13:30 16° WSW 19:16:52 10° SW visible
13 Mar - 06:24:20 10° SSW 06:30:45 88° WNW 06:37:07 10° NNE daylight
13 Mar - 17:31:03 10° NNW 17:36:51 68° ENE 17:42:34 10° SSE daylight
14 Mar - 04:51:01 10° SE 04:54:03 14° ESE 04:57:04 10° ENE visible
14 Mar - 06:33:49 10° SW 06:40:01 54° WNW 06:46:13 10° N daylight
14 Mar - 17:40:18 10° NNW 17:46:06 70° WSW 17:51:50 10° SSE daylight
15 Mar - 04:58:17 10° SSE 05:03:16 24° ESE 05:08:13 10° NE visible
15 Mar - 06:43:45 10° SW 06:49:21 32° WNW 06:54:56 10° N daylight
15 Mar - 16:05:41 10° NNE 16:09:06 16° ENE 16:12:30 10° ESE daylight
15 Mar - 17:49:56 10° NW 17:55:18 40° WSW 18:00:40 10° S daylight
16 Mar - 05:06:35 10° S 05:12:29 40° ESE 05:18:22 10° NE visible
16 Mar - 06:54:18 10° WSW 06:58:42 19° WNW 07:03:07 10° NNW daylight
16 Mar - 16:13:36 10° N 16:18:29 27° ENE 16:23:18 10° SE daylight
16 Mar - 18:00:05 10° WNW 18:04:31 23° WSW 18:08:57 10° SSW visible
